Regional Weather Roundup
Issued by NWS

Home | Current Version | Previous Version | Graphics & Text | Print | Product List | Glossary On
Versions: 1 2 3 4 5 6 7 8 9 10 11 12 13 14 15 16 17 18 19 20 21 22 23 24 25 26 27 28 29 30 31 32 33 34 35 36 37 38 39 40 41 42 43 44 45 46 47 48 49 50
000
ASUS43 KLOT 010203
RWRIL

ILLINOIS REGIONAL WEATHER ROUNDUP
NATIONAL WEATHER SERVICE CHICAGO/ROMEOVILLE IL
900 PM CDT SAT APR 30 2016

NOTE: "FAIR" INDICATES FEW OR NO CLOUDS BELOW 12,000 FEET WITH NO
SIGNIFICANT WEATHER AND/OR OBSTRUCTIONS TO VISIBILITY.

* THESE STATIONS ARE NOT UNDER NWS QUALITY CONTROL. THEY ALSO MAY NOT
  REPORT WEATHER SUCH AS PRECIPITATION OR FOG.

ILZ001-002-007-009-015-016-024-010300-
NORTHWEST ILLINOIS

CITY           SKY/WX    TMP DP  RH WIND       PRES   REMARKS
MOLINE         CLOUDY    47  43  86 E17       29.89R
STERLING*      CLOUDY    45  45 100 E17       29.91R
$$

ILZ003-004-008-010-011-017-018-010300-
NORTH CENTRAL ILLINOIS

CITY           SKY/WX    TMP DP  RH WIND       PRES   REMARKS
ROCKFORD       LGT RAIN  45  42  89 NE16G23   29.95F
FREEPORT*      CLOUDY    42  41  95 NE18      29.95F
ROCHELLE*      LGT RAIN  44  43  96 NE21G29   29.91F
DE KALB*       LGT RAIN  45  44  97 NE17G24   29.93S
$$

ILZ005-006-012>014-019>023-010300-
NORTHEAST ILLINOIS

CITY           SKY/WX    TMP DP  RH WIND       PRES   REMARKS
CHICAGO-OHARE  LGT RAIN  45  44  97 NE15      29.93S FOG
CHICAGO-MIDWAY LGT RAIN  46  43  89 NE18      29.92R FOG
AURORA         CLOUDY    47  44  90 NE21G26   29.91R FOG
LANSING*       DRIZZLE   47  46  99 N9        29.90S
WAUKEGAN       LGT RAIN  43  42  97 N15G22    29.96R
DUPAGE AIRPORT LGT RAIN  45  42  89 NE15G23   29.91S FOG
WHEELING       LGT RAIN  44  43  96 NE13G25   29.96S FOG
MORRIS*        DRIZZLE   47  45  95 NE6       29.88S
NORTHERLY ISL    N/A     44  42  93 N14         N/A
NORTHERLY ISL    N/A     44  42  93 N14         N/A
$$

LMZ740>746-010300-
SOUTHERN LAKE MICHIGAN

STATION/POSITION SKY/WX   TEMP    WIND        PRES    VSBY  WAVE
                          AIR SEA DIR/SP/G                  HT/PER
                          (F)     (DEG/KT/KT) (MB)    (MI)  (FT/S)
SOUTHERN BUOY              42 40   30/ 10/ 12 1015.8          1/ 3
HARRISON CRIB              44      50/ 21/ 23   N/A
BURNHAM HARBOR             44      30/ 12/ 19   N/A
CALUMET HARBOR             45      30/ 15/ 20 1012.4F
BURNS HARBOR               48      70/ 16/ 18 1012.5F
MICHIGAN CITY              48      40/ 13/ 16   N/A
ST. JOSEPH                 48 47                N/A           2/ 3
$$

ILZ025>027-034>036-040-047-049-050-058-095>099-010300-
WEST-CENTRAL ILLINOIS

CITY           SKY/WX    TMP DP  RH WIND       PRES   REMARKS
QUINCY         PTCLDY    59  57  93 CALM      29.78F
MACOMB*        CLOUDY    52  52 100 NE13      29.86R FOG
PITTSFIELD*    TSTM      65  63  94 N14       29.79R
$$

ILZ028>032-037-038-041>044-048-051>054-059>061-010300-
CENTRAL ILLINOIS

CITY           SKY/WX    TMP DP  RH WIND       PRES   REMARKS
BLOOMINGTON    FOG       54  54 100 NE9       29.84R VSB 3/4
DECATUR        FOG       59  57  93 SE5       29.83R VSB 1
PEORIA         CLOUDY    51  50  96 NE13      29.85R
LINCOLN*       PTCLDY    61  61 100 CALM      29.81R FOG
SPRINGFIELD    MOCLDY    63  62  97 NE6       29.80R FOG
TAYLORVILLE    NOT AVBL
$$

ILZ033-039-045-046-055>057-062-063-010300-
EAST-CENTRAL ILLINOIS

CITY           SKY/WX    TMP DP  RH WIND       PRES   REMARKS
CHAMPAIGN      MOCLDY    60  59  96 CALM      29.83R FOG
MATTOON        CLOUDY    64  61  90 S3        29.83R
$$

ILZ079-100>102-010300-
SOUTHWEST ILLINOIS

CITY           SKY/WX    TMP DP  RH WIND       PRES   REMARKS
BELLEVILLE     TSTM      63  55  77 N12       29.84R
CAHOKIA*       TSTM      57  54  89 SE7       29.82R
SPARTA*        CLOUDY    66  61  85 SE5       29.81S
$$

ILZ064>066-069>071-074>076-080>082-084>086-088>090-092>094-010300-
SOUTH-CENTRAL ILLINOIS

CITY           SKY/WX    TMP DP  RH WIND       PRES   REMARKS
CARBONDALE     MOCLDY    66  60  81 S5        29.82R
CAIRO*         CLEAR     66  63  88 SE6       29.82S
EFFINGHAM*     CLOUDY    66  65  96 SE5       29.84R
MARION         PTCLDY    66  61  82 SE6       29.83S
MT. VERNON     CLOUDY    66  57  72 CALM      29.85R
SALEM*         MOCLDY    67  62  84 SE5       29.82S
METROPOLIS*    PTCLDY    68  65  88 SE3       29.83F
$$

ILZ067-068-072-073-078-083-087-091-010300-
SOUTHEAST ILLINOIS

CITY           SKY/WX    TMP DP  RH WIND       PRES   REMARKS
LAWRENCEVILLE  CLOUDY    66  65  96 S10       29.84R
FLORA*         CLOUDY    68  64  85 SW5       29.85R
FAIRFIELD*     CLOUDY    67  64  88 S3        29.84R
HARRISBURG*    MOCLDY    65  64  96 CALM      29.85R
ROBINSON*      CLOUDY    64  63  94 S8        29.84S
CARMI*         MOCLDY    66  64  93 S6        29.85R
$$

ABBREVIATIONS USED IN REMARKS
   TC - TEMPERATURE IN CELSIUS
  WCI - WIND CHILL INDEX
   HX - HEAT INDEX
  VSB - VISIBILITY
$$




USA.gov is the U.S. government's official web portal to all federal, state and local government web resources and services.